STARLINK-2372 (47912 NORAD) Tracking and Keplerian Element Data

This shows tracking and keplerian element data for the satellite.

Feedback or suggestion? Click here.




ElementValue
Catalog47912
NameSTARLINK-2372
Epoch Orbit187
Epoch Day170.58334491
Epoch Year2021
RAAN95.5039
Inclination53.0472
Eccentricity0.0001267
Argument of Perigee78.1115
Mean Anonmoly120.0455
Mean Motion15.55942393
Decay Rate-0.01091577
L11 47912U 21021BE 21170.58334491 -.01091577 00000-0 -17034-1 0 9995
L22 47912 53.0472 95.5039 0001267 78.1115 120.0455 15.55942393 1875

Live tracking and technical data element details for STARLINK-2372 (NORAD 47912). STARLINK-2372 can be tracked NOW for your location showing map with azimuth and elevation plus other details from your city location.

Track the satellite on the map from your city or location and see movement details for azimuth, elevation, latitude, longitude, range, height, and movement on the map or in text.







IsCatalogInMostPopularTable: catalog: 47912, numindb: 41
Update: records affected: 1



GetName: 47912 STARLINK-2372

Hit Count: updated at: Mon, 21 Jun 2021 03:14:19 GMT